Location: Vista Encantada
(35.1109°N, 106.5681°W)
Time: 09:13:33
(UTC+00:00)

Cosmos 1092 Rocket - Pass Details

Date: 29 October 2020
Orbit: 955 x 994 km, 83.0° (Epoch: 04 December)

Event Time Altitude Azimuth Distance (km) Brightness Sun altitude
Rises 11:58:11 0° 196° (SSW) 3,622 6.9 -18.3°
Reaches altitude 10° 12:00:42 10° 201° (SSW) 2,683 6.1 -17.8°
Maximum altitude 12:06:43 56° 279° (W) 1,133 4.0 -16.6°
Drops below altitude 10° 12:12:50 10° 357° (N) 2,723 6.2 -15.3°
Sets 12:15:26 0° 2° (N) 3,680 7.0 -14.8°
